Back to catalog

STARLINK-11170

AliveCommunicationsVLEO
NORAD 60068·PAYLOAD·🇺🇸 United States

Launched Jun 19, 2024 from Vandenberg Space Force Base

Loading…

Next Passes (next 24 hours)

TLE

FreshSource: CelesTrak SupGP

Epoch: Sep 14, 2026, 14:11 UTC

1 60068C 24113K   26257.59145833  .00013211  00000+0  10886-3 0  2571
2 60068  53.1569 340.3499 0001276  68.5220 359.5183 15.69694012    10

Track STARLINK-11170 in real time with AllMySat

Download on the App Store